Location: Croagnes
(43.9363°N, 5.3265°E)
Time: 07:27:19
(UTC+00:00)

Cosmos 1300 - Pass Details

Date: 06 June 2020
Orbit: 512 x 513 km, 82.5° (Epoch: 12 July)

Event Time Altitude Azimuth Distance (km) Brightness Sun altitude
Rises 22:43:13 0° 360° (N) 2,637 7.7 -22.1°
Reaches altitude 10° 22:45:30 10° 9° (N) 1,745 6.3 -22.2°
Enters shadow 22:48:59 34° 75° (ENE) 855 3.7 -22.4°
